,,,PA_Meas_PMT16A,,PR_Meas_QMR101_102,,RH_Meas_QMH101,,SR_Meas_QMS101,,TA_Meas_QMH101,,GenWind,,GenWind,
date,time,status,PA,status,PR,status,RH,status,SR,status,TA,status,DirAvg,status,SpdAvg,
2008-04-29, 00:00:04,VALID,1002.59,VALID,0,VALID,92.7519,VALID,0,VALID,24.3302,VALID,315,VALID,0.015625,
2008-04-29, 00:01:04,VALID,1002.56,VALID,0,VALID,92.7824,VALID,0,VALID,24.2912,VALID,315,VALID,0.155078,
2008-04-29, 00:02:04,VALID,1002.52,VALID,0,VALID,92.8511,VALID,0,VALID,24.2912,VALID,348,VALID,0.616797,
2008-04-29, 00:03:04,VALID,1002.49,VALID,0,VALID,92.8358,VALID,0,VALID,24.3107,VALID,5,VALID,0.438672,
2008-04-29, 00:04:04,VALID,1002.48,VALID,0,VALID,92.8358,VALID,0,VALID,24.332,VALID,352,VALID,0.523828,
2008-04-29, 00:05:04,VALID,1002.46,VALID,0,VALID,92.7977,VALID,0,VALID,24.3107,VALID,330,VALID,0.386719,
2008-04-29, 00:06:04,VALID,1002.42,VALID,0,VALID,92.7596,VALID,0,VALID,24.3302,VALID,357,VALID,0.766797,
2008-04-29, 00:07:04,VALID,1002.43,VALID,0,VALID,92.7138,VALID,0,VALID,24.3302,VALID,347,VALID,0.957422,
2008-04-29, 00:08:04,VALID,1002.42,VALID,0,VALID,92.5536,VALID,0,VALID,24.3496,VALID,353,VALID,0.86875,
2008-04-29, 00:09:04,VALID,1002.43,VALID,0,VALID,92.5078,VALID,0,VALID,24.3478,VALID,345,VALID,0.898828,
2008-04-29, 00:10:04,VALID,1002.42,VALID,0,VALID,92.4849,VALID,0,VALID,24.3283,VALID,354,VALID,0.760938,
2008-04-29, 00:11:04,VALID,1002.44,VALID,0,VALID,92.5231,VALID,0,VALID,24.3478,VALID,349,VALID,0.622266,
2008-04-29, 00:12:04,VALID,1002.43,VALID,0,VALID,92.4315,VALID,0,VALID,24.3283,VALID,346,VALID,0.671875,
2008-04-29, 00:13:04,VALID,1002.43,VALID,0,VALID,92.4925,VALID,0,VALID,24.2699,VALID,349,VALID,0.573047,
2008-04-29, 00:14:04,VALID,1002.44,VALID,0,VALID,92.607,VALID,0,VALID,24.2115,VALID,355,VALID,0.723437,
2008-04-29, 00:15:04,VALID,1002.46,VALID,0,VALID,92.9579,VALID,0,VALID,24.1726,VALID,351,VALID,0.51875,
2008-04-29, 00:16:04,VALID,1002.46,VALID,0,VALID,92.8816,VALID,0,VALID,24.1726,VALID,357,VALID,0.713672,
2008-04-29, 00:17:04,VALID,1002.44,VALID,0,VALID,92.9503,VALID,0,VALID,24.1142,VALID,352,VALID,0.569531,
2008-04-29, 00:18:04,VALID,1002.46,VALID,0,VALID,92.9961,VALID,0,VALID,24.0752,VALID,356,VALID,0.554297,
2008-04-29, 00:19:04,VALID,1002.47,VALID,0,VALID,93.1181,VALID,0,VALID,24.0576,VALID,356,VALID,0.265625,
2008-04-29, 00:20:04,VALID,1002.46,VALID,0,VALID,93.2173,VALID,0,VALID,23.9973,VALID,360,VALID,0.616406,
2008-04-29, 00:21:04,VALID,1002.48,VALID,0,VALID,93.4843,VALID,0,VALID,23.9389,VALID,360,VALID,0.138281,
2008-04-29, 00:22:04,VALID,1002.45,VALID,0,VALID,93.6369,VALID,0,VALID,23.9195,VALID,356,VALID,0.0894531,
2008-04-29, 00:23:04,VALID,1002.49,VALID,0,VALID,93.7132,VALID,0,VALID,23.9,VALID,356,VALID,0.13125,
2008-04-29, 00:24:04,VALID,1002.49,VALID,0,VALID,93.7742,VALID,0,VALID,23.8611,VALID,356,VALID,0.153125,
2008-04-29, 00:25:04,VALID,1002.5,VALID,0,VALID,93.6903,VALID,0,VALID,23.8027,VALID,356,VALID,0.00078125,
2008-04-29, 00:26:04,VALID,1002.48,VALID,0,VALID,93.8276,VALID,0,VALID,23.7637,VALID,356,VALID,0.229687,
2008-04-29, 00:27:04,VALID,1002.45,VALID,0,VALID,94.0946,VALID,0,VALID,23.7461,VALID,356,VALID,0.248437,
2008-04-29, 00:28:04,VALID,1002.46,VALID,0,VALID,94.1862,VALID,0,VALID,23.7053,VALID,356,VALID,0.367188,
2008-04-29, 00:29:04,VALID,1002.45,VALID,0,VALID,94.1633,VALID,0,VALID,23.6469,VALID,356,VALID,0.541797,
2008-04-29, 00:30:04,VALID,1002.45,VALID,0,VALID,94.5752,VALID,0,VALID,23.6469,VALID,351,VALID,0.556641,
2008-04-29, 00:31:04,VALID,1002.46,VALID,0,VALID,94.7202,VALID,0,VALID,23.6452,VALID,351,VALID,0.422656,
2008-04-29, 00:32:04,VALID,1002.43,VALID,0,VALID,94.7354,VALID,0,VALID,23.6859,VALID,351,VALID,0.286328,
2008-04-29, 00:33:04,VALID,1002.42,VALID,0,VALID,94.5752,VALID,0,VALID,23.6664,VALID,355,VALID,0.603516,
2008-04-29, 00:34:04,VALID,1002.42,VALID,0,VALID,94.56,VALID,0,VALID,23.6275,VALID,355,VALID,0.657422,
2008-04-29, 00:35:04,VALID,1002.43,VALID,0,VALID,94.5371,VALID,0,VALID,23.5885,VALID,355,VALID,0.583984,
2008-04-29, 00:36:04,VALID,1002.42,VALID,0,VALID,94.56,VALID,0,VALID,23.5496,VALID,355,VALID,0.560156,
2008-04-29, 00:37:04,VALID,1002.43,VALID,0,VALID,94.682,VALID,0,VALID,23.5107,VALID,355,VALID,0.376563,
2008-04-29, 00:38:04,VALID,1002.42,VALID,0,VALID,94.7583,VALID,0,VALID,23.4912,VALID,355,VALID,0.484766,
2008-04-29, 00:39:04,VALID,1002.41,VALID,0,VALID,94.7736,VALID,0,VALID,23.4505,VALID,355,VALID,0.317187,
2008-04-29, 00:40:04,VALID,1002.4,VALID,0,VALID,94.8728,VALID,0,VALID,23.4116,VALID,355,VALID,0.3875,
2008-04-29, 00:41:04,VALID,1002.42,VALID,0,VALID,94.9414,VALID,0,VALID,23.3921,VALID,355,VALID,0.25,
2008-04-29, 00:42:04,VALID,1002.37,VALID,0,VALID,94.9338,VALID,0,VALID,23.3727,VALID,355,VALID,0.248437,
2008-04-29, 00:43:04,VALID,1002.36,VALID,0,VALID,95.0177,VALID,0,VALID,23.355,VALID,355,VALID,0.208594,
2008-04-29, 00:44:04,VALID,1002.38,VALID,0,VALID,95.0635,VALID,0,VALID,23.3355,VALID,355,VALID,0.292578,
2008-04-29, 00:45:04,VALID,1002.34,VALID,0,VALID,95.1245,VALID,0,VALID,23.2948,VALID,355,VALID,0.347266,
2008-04-29, 00:46:04,VALID,1002.35,VALID,0,VALID,95.2161,VALID,0,VALID,23.316,VALID,355,VALID,0.421484,
2008-04-29, 00:47:04,VALID,1002.32,VALID,0,VALID,95.3915,VALID,0,VALID,23.316,VALID,355,VALID,0.416016,
2008-04-29, 00:48:04,VALID,1002.33,VALID,0,VALID,95.4297,VALID,0,VALID,23.3355,VALID,355,VALID,0.419922,
2008-04-29, 00:49:04,VALID,1002.31,VALID,0,VALID,95.3305,VALID,0,VALID,23.2966,VALID,355,VALID,0.353125,
2008-04-29, 00:50:04,VALID,1002.32,VALID,0,VALID,95.3152,VALID,0,VALID,23.2966,VALID,355,VALID,0.475781,
2008-04-29, 00:51:04,VALID,1002.33,VALID,0,VALID,95.3,VALID,0,VALID,23.2577,VALID,355,VALID,0.44375,
2008-04-29, 00:52:04,VALID,1002.33,VALID,0,VALID,95.3305,VALID,0.100563,VALID,23.217,VALID,355,VALID,0.472656,
2008-04-29, 00:53:04,VALID,1002.34,VALID,0,VALID,95.3,VALID,0,VALID,23.2187,VALID,359,VALID,0.498047,
2008-04-29, 00:54:04,VALID,1002.39,VALID,0,VALID,95.3076,VALID,0,VALID,23.1798,VALID,359,VALID,0.342187,
2008-04-29, 00:55:04,VALID,1002.37,VALID,0,VALID,95.2923,VALID,0,VALID,23.1409,VALID,360,VALID,0.545703,
2008-04-29, 00:56:04,VALID,1002.38,VALID,0,VALID,95.4068,VALID,0.100563,VALID,23.1197,VALID,1,VALID,0.596875,
2008-04-29, 00:57:04,VALID,1002.34,VALID,0,VALID,95.506,VALID,0,VALID,23.1002,VALID,1,VALID,0.492969,
2008-04-29, 00:58:04,VALID,1002.35,VALID,0,VALID,95.6204,VALID,0,VALID,23.1214,VALID,1,VALID,0.543359,
2008-04-29, 00:59:04,VALID,1002.35,VALID,0,VALID,95.7348,VALID,0,VALID,23.1409,VALID,1,VALID,0.498437,
2008-04-29, 01:00:04,VALID,1002.37,VALID,0,VALID,95.7882,VALID,0,VALID,23.1391,VALID,1,VALID,0.380469,
2008-04-29, 01:01:04,VALID,1002.33,VALID,0,VALID,95.8416,VALID,0,VALID,23.1603,VALID,1,VALID,0.321094,
2008-04-29, 01:02:04,VALID,1002.33,VALID,0,VALID,95.8569,VALID,0,VALID,23.1603,VALID,1,VALID,0.308203,
2008-04-29, 01:03:04,VALID,1002.34,VALID,0,VALID,95.8111,VALID,0,VALID,23.1409,VALID,1,VALID,0.3625,
2008-04-29, 01:04:04,VALID,1002.32,VALID,0,VALID,95.773,VALID,0,VALID,23.1409,VALID,1,VALID,0.496094,
2008-04-29, 01:05:04,VALID,1002.34,VALID,0,VALID,95.7959,VALID,0,VALID,23.1019,VALID,1,VALID,0.461719,
2008-04-29, 01:06:04,VALID,1002.33,VALID,0,VALID,95.8264,VALID,0,VALID,23.1002,VALID,2,VALID,0.448047,
2008-04-29, 01:07:04,VALID,1002.33,VALID,0,VALID,95.8798,VALID,0,VALID,23.1019,VALID,2,VALID,0.537891,
2008-04-29, 01:08:04,VALID,1002.29,VALID,0,VALID,95.8645,VALID,0,VALID,23.0613,VALID,3,VALID,0.411719,
2008-04-29, 01:09:04,VALID,1002.26,VALID,0,VALID,95.834,VALID,0.100563,VALID,23.0613,VALID,3,VALID,0.49375,
2008-04-29, 01:10:04,VALID,1002.27,VALID,0,VALID,95.8416,VALID,0,VALID,23.0418,VALID,3,VALID,0.653125,
2008-04-29, 01:11:04,VALID,1002.25,VALID,0,VALID,96.0629,VALID,0,VALID,23.063,VALID,2,VALID,0.651953,
2008-04-29, 01:12:04,VALID,1002.25,VALID,0,VALID,96.0095,VALID,0.100563,VALID,23.0613,VALID,1,VALID,0.385547,
2008-04-29, 01:13:04,VALID,1002.25,VALID,0,VALID,96.0629,VALID,0,VALID,23.063,VALID,1,VALID,0.307422,
2008-04-29, 01:14:04,VALID,1002.24,VALID,0,VALID,96.0705,VALID,0,VALID,23.0613,VALID,1,VALID,0.498047,
2008-04-29, 01:15:04,VALID,1002.22,VALID,0,VALID,96.0781,VALID,0,VALID,23.1019,VALID,1,VALID,0.298438,
2008-04-29, 01:16:04,VALID,1002.21,VALID,0,VALID,95.9484,VALID,0,VALID,23.0613,VALID,1,VALID,0.391406,
2008-04-29, 01:17:04,VALID,1002.18,VALID,0,VALID,95.9255,VALID,0,VALID,23.0241,VALID,1,VALID,0.503125,
2008-04-29, 01:18:04,VALID,1002.19,VALID,0,VALID,95.9561,VALID,0,VALID,23.0436,VALID,1,VALID,0.491797,
2008-04-29, 01:19:04,VALID,1002.2,VALID,0,VALID,95.9179,VALID,0,VALID,23.0029,VALID,1,VALID,0.373047,
2008-04-29, 01:20:04,VALID,1002.17,VALID,0,VALID,95.9637,VALID,0,VALID,23.0046,VALID,1,VALID,0.512891,
2008-04-29, 01:21:04,VALID,1002.2,VALID,0,VALID,95.9255,VALID,0,VALID,22.9852,VALID,1,VALID,0.508984,
2008-04-29, 01:22:04,VALID,1002.18,VALID,0,VALID,95.9255,VALID,0,VALID,22.9463,VALID,1,VALID,0.366797,
2008-04-29, 01:23:04,VALID,1002.14,VALID,0,VALID,95.9179,VALID,0,VALID,22.9056,VALID,1,VALID,0.432031,
2008-04-29, 01:24:04,VALID,1002.16,VALID,0,VALID,95.9408,VALID,0.100563,VALID,22.9073,VALID,1,VALID,0.506641,
2008-04-29, 01:25:04,VALID,1002.12,VALID,0,VALID,95.9637,VALID,0,VALID,22.8667,VALID,1,VALID,0.391797,
2008-04-29, 01:26:04,VALID,1002.12,VALID,0,VALID,96.0629,VALID,0.100563,VALID,22.8861,VALID,5,VALID,0.496875,
2008-04-29, 01:27:04,VALID,1002.14,VALID,0,VALID,96.0781,VALID,0,VALID,22.9073,VALID,5,VALID,0.460547,
2008-04-29, 01:28:04,VALID,1002.12,VALID,0,VALID,96.0781,VALID,0,VALID,22.8667,VALID,5,VALID,0.433594,
2008-04-29, 01:29:04,VALID,1002.13,VALID,0,VALID,96.1926,VALID,0,VALID,22.9073,VALID,5,VALID,0.631641,
2008-04-29, 01:30:04,VALID,1002.11,VALID,0,VALID,96.2536,VALID,0,VALID,22.9463,VALID,3,VALID,0.641016,
2008-04-29, 01:31:04,VALID,1002.08,VALID,0,VALID,96.3146,VALID,0,VALID,22.9657,VALID,3,VALID,0.775781,
2008-04-29, 01:32:04,VALID,1002.08,VALID,0,VALID,96.2917,VALID,0,VALID,22.9852,VALID,6,VALID,0.60625,
2008-04-29, 01:33:04,VALID,1002.12,VALID,0,VALID,96.2841,VALID,0,VALID,22.9657,VALID,4,VALID,0.610937,
2008-04-29, 01:34:04,VALID,1002.1,VALID,0,VALID,96.2841,VALID,0.100563,VALID,22.9445,VALID,4,VALID,0.555469,
2008-04-29, 01:35:04,VALID,1002.11,VALID,0,VALID,96.2765,VALID,0,VALID,22.9852,VALID,4,VALID,0.644531,
2008-04-29, 01:36:04,VALID,1002.1,VALID,0,VALID,96.1773,VALID,0.100563,VALID,22.9657,VALID,4,VALID,0.458203,
2008-04-29, 01:37:04,VALID,1002.12,VALID,0,VALID,96.1392,VALID,0,VALID,22.9445,VALID,10,VALID,0.646484,
2008-04-29, 01:38:04,VALID,1002.13,VALID,0,VALID,96.1239,VALID,0,VALID,22.9463,VALID,18,VALID,0.464453,
2008-04-29, 01:39:04,VALID,1002.12,VALID,0,VALID,96.2307,VALID,0,VALID,22.9657,VALID,20,VALID,0.601563,
2008-04-29, 01:40:04,VALID,1002.13,VALID,0,VALID,96.2841,VALID,0.100563,VALID,22.964,VALID,24,VALID,0.183203,
2008-04-29, 01:41:04,VALID,1002.14,VALID,0,VALID,96.3604,VALID,0,VALID,22.9852,VALID,23,VALID,0.0679687,
2008-04-29, 01:42:04,VALID,1002.13,VALID,0,VALID,96.2688,VALID,0,VALID,23.0046,VALID,23,VALID,0.218359,
2008-04-29, 01:43:04,VALID,1002.13,VALID,0,VALID,96.1849,VALID,0,VALID,22.9657,VALID,23,VALID,0.388281,
2008-04-29, 01:44:04,VALID,1002.13,VALID,0,VALID,96.1849,VALID,0,VALID,22.9657,VALID,23,VALID,0.382422,
2008-04-29, 01:45:04,VALID,1002.13,VALID,0,VALID,96.3604,VALID,0,VALID,22.9852,VALID,23,VALID,0.342969,
2008-04-29, 01:46:04,VALID,1002.13,VALID,0,VALID,96.3528,VALID,0,VALID,23.0241,VALID,23,VALID,0.343359,
2008-04-29, 01:47:04,VALID,1002.09,VALID,0,VALID,96.2841,VALID,0,VALID,22.9834,VALID,23,VALID,0.356641,
2008-04-29, 01:48:04,VALID,1002.12,VALID,0,VALID,96.2688,VALID,0,VALID,23.0046,VALID,23,VALID,0.427344,
2008-04-29, 01:49:04,VALID,1002.11,VALID,0,VALID,96.2994,VALID,0,VALID,23.0046,VALID,23,VALID,0.408203,
2008-04-29, 01:50:04,VALID,1002.08,VALID,0,VALID,96.3375,VALID,0,VALID,23.0241,VALID,23,VALID,0.378906,
2008-04-29, 01:51:04,VALID,1002.1,VALID,0,VALID,96.368,VALID,0,VALID,23.0224,VALID,23,VALID,0.416797,
2008-04-29, 01:52:04,VALID,1002.09,VALID,0,VALID,96.2612,VALID,0,VALID,23.0046,VALID,23,VALID,0.505078,
2008-04-29, 01:53:04,VALID,1002.08,VALID,0,VALID,96.2383,VALID,0,VALID,22.9852,VALID,23,VALID,0.582812,
2008-04-29, 01:54:04,VALID,1002.08,VALID,0,VALID,96.04,VALID,0,VALID,22.9268,VALID,23,VALID,0.485547,
2008-04-29, 01:55:04,VALID,1002.07,VALID,0,VALID,96.0476,VALID,0,VALID,22.8879,VALID,23,VALID,0.346484,
2008-04-29, 01:56:04,VALID,1002.08,VALID,0,VALID,96.162,VALID,0,VALID,22.8684,VALID,23,VALID,0.409766,
2008-04-29, 01:57:04,VALID,1002.1,VALID,0,VALID,96.3604,VALID,0,VALID,22.8879,VALID,23,VALID,0.348047,
2008-04-29, 01:58:04,VALID,1002.08,VALID,0,VALID,96.4367,VALID,0,VALID,22.9463,VALID,23,VALID,0.302734,
2008-04-29, 01:59:04,VALID,1002.06,VALID,0,VALID,96.3528,VALID,0,VALID,22.9268,VALID,23,VALID,0.308594,
2008-04-29, 02:00:04,VALID,1002.07,VALID,0,VALID,96.2917,VALID,0,VALID,22.9463,VALID,23,VALID,0.389062,
2008-04-29, 02:01:04,VALID,1002.08,VALID,0,VALID,96.2688,VALID,0,VALID,22.9073,VALID,23,VALID,0.333984,
2008-04-29, 02:02:04,VALID,1002.07,VALID,0,VALID,96.2536,VALID,0,VALID,22.8861,VALID,23,VALID,0.321094,
2008-04-29, 02:03:04,VALID,1002.08,VALID,0,VALID,96.2154,VALID,0,VALID,22.8684,VALID,23,VALID,0.299609,
2008-04-29, 02:04:04,VALID,1002.1,VALID,0,VALID,96.2002,VALID,0,VALID,22.8295,VALID,23,VALID,0.367969,
2008-04-29, 02:05:04,VALID,1002.09,VALID,0,VALID,96.2383,VALID,0,VALID,22.8295,VALID,23,VALID,0.43125,
2008-04-29, 02:06:04,VALID,1002.09,VALID,0,VALID,96.3146,VALID,0,VALID,22.8295,VALID,23,VALID,0.435937,
2008-04-29, 02:07:04,VALID,1002.11,VALID,0,VALID,96.3909,VALID,0,VALID,22.8684,VALID,23,VALID,0.457422,
2008-04-29, 02:08:04,VALID,1002.12,VALID,0,VALID,96.368,VALID,0,VALID,22.8472,VALID,23,VALID,0.501953,
2008-04-29, 02:09:04,VALID,1002.11,VALID,0,VALID,96.429,VALID,0,VALID,22.8879,VALID,23,VALID,0.474219,
2008-04-29, 02:10:04,VALID,1002.08,VALID,0,VALID,96.3909,VALID,0,VALID,22.8879,VALID,23,VALID,0.426172,
2008-04-29, 02:11:04,VALID,1002.06,VALID,0,VALID,96.307,VALID,0,VALID,22.8489,VALID,23,VALID,0.441797,
2008-04-29, 02:12:04,VALID,1002.07,VALID,0,VALID,96.2536,VALID,0,VALID,22.81,VALID,23,VALID,0.422266,
2008-04-29, 02:13:04,VALID,1002.08,VALID,0,VALID,96.162,VALID,0,VALID,22.7711,VALID,23,VALID,0.457812,
2008-04-29, 02:14:04,VALID,1002.08,VALID,0,VALID,96.2765,VALID,0,VALID,22.7499,VALID,23,VALID,0.393359,
2008-04-29, 02:15:04,VALID,1002.07,VALID,0,VALID,96.2765,VALID,0,VALID,22.7516,VALID,23,VALID,0.33125,
2008-04-29, 02:16:04,VALID,1002.1,VALID,0,VALID,96.429,VALID,0,VALID,22.7906,VALID,23,VALID,0.407422,
2008-04-29, 02:17:04,VALID,1002.11,VALID,0,VALID,96.4443,VALID,0,VALID,22.7888,VALID,23,VALID,0.359375,
2008-04-29, 02:18:04,VALID,1002.11,VALID,0,VALID,96.4062,VALID,0,VALID,22.7906,VALID,23,VALID,0.280469,
2008-04-29, 02:19:04,VALID,1002.1,VALID,0,VALID,96.4138,VALID,0,VALID,22.7888,VALID,23,VALID,0.378125,
2008-04-29, 02:20:04,VALID,1002.13,VALID,0,VALID,96.4443,VALID,0,VALID,22.7888,VALID,23,VALID,0.221484,
2008-04-29, 02:21:04,VALID,1002.13,VALID,0,VALID,96.4443,VALID,0,VALID,22.8295,VALID,23,VALID,0.280469,
2008-04-29, 02:22:04,VALID,1002.13,VALID,0,VALID,96.4825,VALID,0,VALID,22.8489,VALID,23,VALID,0.347656,
2008-04-29, 02:23:04,VALID,1002.15,VALID,0,VALID,96.4367,VALID,0,VALID,22.8489,VALID,23,VALID,0.268359,
2008-04-29, 02:24:04,VALID,1002.15,VALID,0,VALID,96.3909,VALID,0,VALID,22.8489,VALID,23,VALID,0.053125,
2008-04-29, 02:25:04,VALID,1002.14,VALID,0,VALID,96.429,VALID,0,VALID,22.8295,VALID,23,VALID,0.507422,
2008-04-29, 02:26:04,VALID,1002.16,VALID,0,VALID,96.4901,VALID,0,VALID,22.8879,VALID,23,VALID,0.180078,
2008-04-29, 02:27:04,VALID,1002.17,VALID,0,VALID,96.4901,VALID,0,VALID,22.9268,VALID,23,VALID,0.321875,
2008-04-29, 02:28:04,VALID,1002.15,VALID,0,VALID,96.4748,VALID,0,VALID,22.9056,VALID,23,VALID,0.255078,
2008-04-29, 02:29:04,VALID,1002.2,VALID,0,VALID,96.4214,VALID,0,VALID,22.9073,VALID,23,VALID,0.306641,
2008-04-29, 02:30:04,VALID,1002.17,VALID,0,VALID,96.4214,VALID,0,VALID,22.8861,VALID,23,VALID,0.302344,
2008-04-29, 02:31:04,VALID,1002.18,VALID,0,VALID,96.429,VALID,0.100563,VALID,22.9268,VALID,23,VALID,0.219922,
2008-04-29, 02:32:04,VALID,1002.17,VALID,0,VALID,96.2841,VALID,0,VALID,22.8684,VALID,23,VALID,0.107031,
2008-04-29, 02:33:04,VALID,1002.17,VALID,0,VALID,96.1315,VALID,0.100563,VALID,22.7888,VALID,23,VALID,0.221094,
2008-04-29, 02:34:04,VALID,1002.16,VALID,0,VALID,96.1773,VALID,0,VALID,22.7499,VALID,23,VALID,0.301953,
2008-04-29, 02:35:04,VALID,1002.18,VALID,0,VALID,96.2765,VALID,0,VALID,22.7694,VALID,23,VALID,0.229687,
2008-04-29, 02:36:04,VALID,1002.17,VALID,0,VALID,96.3146,VALID,0,VALID,22.81,VALID,23,VALID,0.266797,
2008-04-29, 02:37:04,VALID,1002.19,VALID,0,VALID,96.2536,VALID,0.100563,VALID,22.7499,VALID,23,VALID,0.366016,
2008-04-29, 02:38:04,VALID,1002.21,VALID,0,VALID,96.1544,VALID,0,VALID,22.7322,VALID,23,VALID,0.337891,
2008-04-29, 02:39:04,VALID,1002.18,VALID,0,VALID,96.1239,VALID,0,VALID,22.6526,VALID,23,VALID,0.344531,
2008-04-29, 02:40:04,VALID,1002.18,VALID,0,VALID,96.1163,VALID,0,VALID,22.6543,VALID,23,VALID,0.292969,
2008-04-29, 02:41:04,VALID,1002.17,VALID,0,VALID,96.162,VALID,0,VALID,22.6561,VALID,23,VALID,0.260547,
2008-04-29, 02:42:04,VALID,1002.15,VALID,0,VALID,96.2841,VALID,0,VALID,22.5942,VALID,23,VALID,0.40625,
2008-04-29, 02:43:04,VALID,1002.18,VALID,0,VALID,96.4672,VALID,0,VALID,22.6738,VALID,23,VALID,0.366406,
2008-04-29, 02:44:04,VALID,1002.17,VALID,0,VALID,96.4672,VALID,0,VALID,22.7127,VALID,23,VALID,0.189453,
2008-04-29, 02:45:04,VALID,1002.2,VALID,0,VALID,96.307,VALID,0,VALID,22.6721,VALID,23,VALID,0.390234,
2008-04-29, 02:46:04,VALID,1002.2,VALID,0,VALID,96.1773,VALID,0,VALID,22.6154,VALID,23,VALID,0.477734,
2008-04-29, 02:47:04,VALID,1002.22,VALID,0,VALID,96.2154,VALID,0,VALID,22.6154,VALID,23,VALID,0.360938,
2008-04-29, 02:48:04,VALID,1002.23,VALID,0,VALID,96.3375,VALID,0,VALID,22.5942,VALID,23,VALID,0.379687,
2008-04-29, 02:49:04,VALID,1002.23,VALID,0,VALID,96.5053,VALID,0,VALID,22.6332,VALID,23,VALID,0.464063,
2008-04-29, 02:50:04,VALID,1002.26,VALID,0,VALID,96.6121,VALID,0,VALID,22.6721,VALID,23,VALID,0.428516,
2008-04-29, 02:51:04,VALID,1002.27,VALID,0,VALID,96.4977,VALID,0.100563,VALID,22.6933,VALID,23,VALID,0.416797,
2008-04-29, 02:52:04,VALID,1002.26,VALID,0,VALID,96.574,VALID,0,VALID,22.7322,VALID,23,VALID,0.39375,
2008-04-29, 02:53:04,VALID,1002.3,VALID,0,VALID,96.4901,VALID,0,VALID,22.6915,VALID,23,VALID,0.394531,
2008-04-29, 02:54:04,VALID,1002.29,VALID,0,VALID,96.4825,VALID,0,VALID,22.7127,VALID,23,VALID,0.527344,
2008-04-29, 02:55:04,VALID,1002.3,VALID,0,VALID,96.4977,VALID,0,VALID,22.7127,VALID,23,VALID,0.608203,
2008-04-29, 02:56:04,VALID,1002.34,VALID,0,VALID,96.4748,VALID,0,VALID,22.711,VALID,23,VALID,0.414844,
2008-04-29, 02:57:04,VALID,1002.36,VALID,0,VALID,96.4748,VALID,0.100563,VALID,22.7322,VALID,23,VALID,0.445703,
2008-04-29, 02:58:04,VALID,1002.35,VALID,0,VALID,96.3451,VALID,0,VALID,22.6543,VALID,23,VALID,0.498828,
2008-04-29, 02:59:04,VALID,1002.35,VALID,0,VALID,96.2002,VALID,0.100563,VALID,22.596,VALID,23,VALID,0.455469,
2008-04-29, 03:00:04,VALID,1002.35,VALID,0,VALID,96.1468,VALID,0.100563,VALID,22.5588,VALID,23,VALID,0.456641,
2008-04-29, 03:01:04,VALID,1002.38,VALID,0,VALID,96.2307,VALID,0,VALID,22.4775,VALID,23,VALID,0.464063,
2008-04-29, 03:02:04,VALID,1002.39,VALID,0,VALID,96.3146,VALID,0,VALID,22.4987,VALID,23,VALID,0.508984,
2008-04-29, 03:03:04,VALID,1002.37,VALID,0,VALID,96.4977,VALID,0.100563,VALID,22.5359,VALID,23,VALID,0.451172,
2008-04-29, 03:04:04,VALID,1002.38,VALID,0,VALID,96.635,VALID,0.100563,VALID,22.6349,VALID,23,VALID,0.29375,
2008-04-29, 03:05:04,VALID,1002.39,VALID,0,VALID,96.6503,VALID,0,VALID,22.6332,VALID,23,VALID,0.200781,
2008-04-29, 03:06:04,VALID,1002.4,VALID,0,VALID,96.635,VALID,0,VALID,22.6933,VALID,23,VALID,0.260938,
2008-04-29, 03:07:04,VALID,1002.41,VALID,0,VALID,96.5816,VALID,0,VALID,22.6738,VALID,23,VALID,0.157813,
2008-04-29, 03:08:04,VALID,1002.42,VALID,0,VALID,96.574,VALID,0.100563,VALID,22.6526,VALID,23,VALID,0.00195313,
2008-04-29, 03:09:04,VALID,1002.43,VALID,0,VALID,96.6579,VALID,0,VALID,22.6738,VALID,23,VALID,0.253516,
2008-04-29, 03:10:04,VALID,1002.41,VALID,0,VALID,96.7342,VALID,0,VALID,22.7534,VALID,23,VALID,0.383203,
2008-04-29, 03:11:04,VALID,1002.4,VALID,0,VALID,96.7495,VALID,0,VALID,22.8118,VALID,23,VALID,0.280078,
2008-04-29, 03:12:04,VALID,1002.41,VALID,0,VALID,96.7037,VALID,0,VALID,22.81,VALID,23,VALID,0.232422,
2008-04-29, 03:13:04,VALID,1002.41,VALID,0,VALID,96.6732,VALID,0,VALID,22.8295,VALID,23,VALID,0.0527344,
2008-04-29, 03:14:04,VALID,1002.41,VALID,0,VALID,96.6579,VALID,0,VALID,22.8295,VALID,23,VALID,0.354297,
2008-04-29, 03:15:04,VALID,1002.4,VALID,0,VALID,96.6274,VALID,0,VALID,22.8295,VALID,23,VALID,0.512891,
2008-04-29, 03:16:04,VALID,1002.42,VALID,0,VALID,96.5587,VALID,0,VALID,22.81,VALID,23,VALID,0.514063,
2008-04-29, 03:17:04,VALID,1002.42,VALID,0,VALID,96.5282,VALID,0,VALID,22.7906,VALID,23,VALID,0.514063,
2008-04-29, 03:18:04,VALID,1002.41,VALID,0,VALID,96.4214,VALID,0,VALID,22.7322,VALID,23,VALID,0.471094,
2008-04-29, 03:19:04,VALID,1002.44,VALID,0,VALID,96.429,VALID,0,VALID,22.7339,VALID,23,VALID,0.467187,
2008-04-29, 03:20:04,VALID,1002.45,VALID,0,VALID,96.513,VALID,0,VALID,22.7127,VALID,23,VALID,0.454688,
2008-04-29, 03:21:04,VALID,1002.45,VALID,0,VALID,96.6045,VALID,0,VALID,22.7516,VALID,23,VALID,0.274609,
2008-04-29, 03:22:04,VALID,1002.43,VALID,0,VALID,96.6884,VALID,0,VALID,22.8312,VALID,23,VALID,0.202734,
2008-04-29, 03:23:04,VALID,1002.47,VALID,0,VALID,96.7113,VALID,0,VALID,22.8489,VALID,23,VALID,0.376172,
2008-04-29, 03:24:04,VALID,1002.46,VALID,0,VALID,96.6808,VALID,0,VALID,22.8896,VALID,23,VALID,0.444922,
2008-04-29, 03:25:04,VALID,1002.48,VALID,0,VALID,96.6503,VALID,0,VALID,22.8684,VALID,23,VALID,0.562109,
2008-04-29, 03:26:04,VALID,1002.46,VALID,0,VALID,96.5587,VALID,0,VALID,22.81,VALID,23,VALID,0.623828,
2008-04-29, 03:27:04,VALID,1002.48,VALID,0,VALID,96.5282,VALID,0,VALID,22.7906,VALID,23,VALID,0.629687,
2008-04-29, 03:28:04,VALID,1002.48,VALID,0,VALID,96.4596,VALID,0,VALID,22.7516,VALID,23,VALID,0.449219,
2008-04-29, 03:29:04,VALID,1002.5,VALID,0,VALID,96.3909,VALID,0,VALID,22.7127,VALID,23,VALID,0.451562,
2008-04-29, 03:30:04,VALID,1002.5,VALID,0,VALID,96.3528,VALID,0,VALID,22.6332,VALID,23,VALID,0.254297,
2008-04-29, 03:31:04,VALID,1002.54,VALID,0,VALID,96.3299,VALID,0,VALID,22.6154,VALID,23,VALID,0.0964844,
2008-04-29, 03:32:04,VALID,1002.53,VALID,0,VALID,96.2841,VALID,0,VALID,22.5765,VALID,23,VALID,0.0132813,
2008-04-29, 03:33:04,VALID,1002.52,VALID,0,VALID,96.429,VALID,0,VALID,22.596,VALID,23,VALID,0.238281,
2008-04-29, 03:34:04,VALID,1002.52,VALID,0,VALID,96.3833,VALID,0,VALID,22.5765,VALID,23,VALID,0.258984,
2008-04-29, 03:35:04,VALID,1002.53,VALID,0,VALID,96.3222,VALID,0,VALID,22.5376,VALID,23,VALID,0.416016,
2008-04-29, 03:36:04,VALID,1002.52,VALID,0,VALID,96.2078,VALID,0,VALID,22.4403,VALID,23,VALID,0.562109,
2008-04-29, 03:37:04,VALID,1002.52,VALID,0,VALID,96.3146,VALID,0,VALID,22.4403,VALID,23,VALID,0.534766,
2008-04-29, 03:38:04,VALID,1002.53,VALID,0,VALID,96.3528,VALID,0,VALID,22.4403,VALID,23,VALID,0.528125,
2008-04-29, 03:39:04,VALID,1002.53,VALID,0,VALID,96.4596,VALID,0,VALID,22.442,VALID,23,VALID,0.444922,
2008-04-29, 03:40:04,VALID,1002.55,VALID,0,VALID,96.5511,VALID,0,VALID,22.4792,VALID,23,VALID,0.348437,
2008-04-29, 03:41:04,VALID,1002.58,VALID,0,VALID,96.6121,VALID,0,VALID,22.4987,VALID,23,VALID,0.325781,
2008-04-29, 03:42:04,VALID,1002.57,VALID,0,VALID,96.6274,VALID,0,VALID,22.5181,VALID,23,VALID,0.469531,
2008-04-29, 03:43:04,VALID,1002.55,VALID,0,VALID,96.6045,VALID,0,VALID,22.5198,VALID,23,VALID,0.419141,
2008-04-29, 03:44:04,VALID,1002.58,VALID,0,VALID,96.6808,VALID,0,VALID,22.5553,VALID,23,VALID,0.525391,
2008-04-29, 03:45:04,VALID,1002.55,VALID,0,VALID,96.78,VALID,0,VALID,22.6154,VALID,23,VALID,0.423828,